BAW962 EGLL-EDDH

Flight info

Callsign BAW962
Flight time 1h 10m
Altitude 35000
Route BPK Q295 SOMVA DCT MAVAS DCT GASTU DCT OSTOR/N0377F230 T904 RIBSO RIBSO3P
Aircraft A320/M-SDE3FGHIRWY/LB1

Departure

Time 2026-04-26 15:55
Airport London Heathrow Airport (EGLL)

Arrival

Time 2026-04-26 17:06
Airport Hamburg Helmut Schmidt Airport (EDDH)
Time Latitude Longitude Altitude Speed Heading
2026-04-26 15:34 51.46827 -0.48680 86 ft 0 kts 180°
2026-04-26 15:47 51.46855 -0.48680 86 ft 2 kts 180°
2026-04-26 15:47 51.46873 -0.48676 86 ft 4 kts 240°
2026-04-26 15:48 51.46877 -0.48640 86 ft 4 kts 270°
2026-04-26 15:48 51.46877 -0.48626 86 ft 0 kts 270°
2026-04-26 15:50 51.46877 -0.48640 86 ft 6 kts 270°
2026-04-26 15:50 51.46852 -0.48750 87 ft 13 kts 194°
2026-04-26 15:51 51.46807 -0.48750 87 ft 0 kts 177°
2026-04-26 15:52 51.46800 -0.48750 87 ft 2 kts 177°
2026-04-26 15:52 51.46779 -0.48749 86 ft 4 kts 179°
2026-04-26 15:52 51.46677 -0.48747 86 ft 19 kts 180°
2026-04-26 15:52 51.46608 -0.48764 90 ft 10 kts 197°
2026-04-26 15:53 51.46587 -0.48774 90 ft 5 kts 197°
2026-04-26 15:53 51.46490 -0.48761 89 ft 17 kts 130°
2026-04-26 15:53 51.46478 -0.48643 86 ft 0 kts 89°
2026-04-26 15:54 51.46478 -0.48587 86 ft 24 kts 89°
2026-04-26 15:55 51.46481 -0.47936 87 ft 90 kts 90°
2026-04-26 15:55 51.46486 -0.46659 92 ft 136 kts 89°
2026-04-26 15:55 51.46493 -0.44941 201 ft 164 kts 89°
2026-04-26 15:55 51.46502 -0.43149 847 ft 161 kts 89°
2026-04-26 15:56 51.46636 -0.41362 1441 ft 167 kts 71°
2026-04-26 15:56 51.47292 -0.39686 1742 ft 190 kts 50°
2026-04-26 15:56 51.48202 -0.37977 2052 ft 212 kts 51°
2026-04-26 15:56 51.49183 -0.36102 2416 ft 233 kts 51°
2026-04-26 15:57 51.50274 -0.34014 2913 ft 253 kts 52°
2026-04-26 15:57 51.51419 -0.31822 3790 ft 258 kts 51°
2026-04-26 15:57 51.52416 -0.29415 4655 ft 262 kts 68°
2026-04-26 15:57 51.52837 -0.27557 5247 ft 264 kts 72°
2026-04-26 15:58 51.53691 -0.23838 5932 ft 272 kts 63°
2026-04-26 15:58 51.54822 -0.21415 5994 ft 273 kts 42°
2026-04-26 15:58 51.56434 -0.19830 6005 ft 274 kts 20°
2026-04-26 15:58 51.58224 -0.18765 6018 ft 275 kts 22°
2026-04-26 15:59 51.60018 -0.17746 6694 ft 278 kts 17°
2026-04-26 15:59 51.61874 -0.16826 7527 ft 281 kts 17°
2026-04-26 15:59 51.63761 -0.15905 8300 ft 286 kts 16°
2026-04-26 15:59 51.65674 -0.14992 9145 ft 288 kts 15°
2026-04-26 16:00 51.67614 -0.14081 9938 ft 292 kts 15°
2026-04-26 16:00 51.69583 -0.13162 10611 ft 300 kts 15°
2026-04-26 16:00 51.71571 -0.11769 10808 ft 324 kts 31°
2026-04-26 16:00 51.73381 -0.09432 11083 ft 343 kts 47°
2026-04-26 16:01 51.74777 -0.06279 11651 ft 349 kts 63°
2026-04-26 16:01 51.75610 -0.02646 12282 ft 352 kts 78°
2026-04-26 16:01 51.75977 0.01285 12965 ft 358 kts 83°
2026-04-26 16:01 51.76309 0.05291 13931 ft 363 kts 83°
2026-04-26 16:02 51.76643 0.09357 14812 ft 368 kts 83°
2026-04-26 16:02 51.76981 0.13480 15686 ft 373 kts 83°
2026-04-26 16:02 51.77323 0.17658 16402 ft 377 kts 83°
2026-04-26 16:02 51.77553 0.20452 16766 ft 380 kts 83°
2026-04-26 16:03 51.78019 0.26148 17501 ft 385 kts 84°
2026-04-26 16:03 51.78367 0.30449 18057 ft 389 kts 84°
2026-04-26 16:03 51.78714 0.34743 18595 ft 392 kts 84°
2026-04-26 16:03 51.79063 0.39126 19080 ft 396 kts 84°
2026-04-26 16:04 51.79412 0.43556 19572 ft 399 kts 84°
2026-04-26 16:04 51.79763 0.48011 20066 ft 402 kts 84°
2026-04-26 16:04 51.80116 0.52495 20608 ft 403 kts 84°
2026-04-26 16:04 51.80469 0.57005 21105 ft 406 kts 84°
2026-04-26 16:05 51.80825 0.61540 21564 ft 409 kts 83°
2026-04-26 16:05 51.81423 0.66038 22013 ft 412 kts 72°
2026-04-26 16:05 51.82457 0.70373 22438 ft 415 kts 67°
2026-04-26 16:05 51.83585 0.74683 22891 ft 418 kts 67°
2026-04-26 16:06 51.84717 0.79031 23336 ft 421 kts 67°
2026-04-26 16:06 51.85840 0.83366 23745 ft 425 kts 67°
2026-04-26 16:06 51.86982 0.87793 24173 ft 429 kts 67°
2026-04-26 16:06 51.88131 0.92265 24715 ft 432 kts 67°
2026-04-26 16:07 51.89289 0.96785 25232 ft 436 kts 67°
2026-04-26 16:07 51.90452 1.01332 25780 ft 438 kts 66°
2026-04-26 16:07 51.91620 1.05901 26255 ft 441 kts 66°
2026-04-26 16:07 51.92794 1.10500 26700 ft 444 kts 66°
2026-04-26 16:08 51.93974 1.15141 27126 ft 447 kts 66°
2026-04-26 16:08 51.94760 1.18232 27395 ft 449 kts 66°
2026-04-26 16:08 51.96341 1.24445 27903 ft 453 kts 66°
2026-04-26 16:08 51.97542 1.29183 28256 ft 455 kts 66°
2026-04-26 16:09 51.98745 1.33946 28606 ft 458 kts 66°
2026-04-26 16:09 51.99955 1.38739 28947 ft 461 kts 66°
2026-04-26 16:09 52.01174 1.43566 29275 ft 463 kts 66°
2026-04-26 16:09 52.02396 1.48415 29591 ft 466 kts 66°
2026-04-26 16:10 52.03624 1.53309 29893 ft 469 kts 66°
2026-04-26 16:10 52.04856 1.58235 30189 ft 472 kts 66°
2026-04-26 16:10 52.06089 1.63189 30570 ft 473 kts 66°
2026-04-26 16:10 52.07299 1.68070 30957 ft 472 kts 66°
2026-04-26 16:11 52.08523 1.73014 31357 ft 471 kts 66°
2026-04-26 16:11 52.09742 1.77945 31770 ft 470 kts 66°
2026-04-26 16:11 52.10958 1.82868 32193 ft 469 kts 66°
2026-04-26 16:11 52.12172 1.87785 32628 ft 467 kts 66°
2026-04-26 16:12 52.13381 1.92684 33042 ft 466 kts 66°
2026-04-26 16:12 52.14583 1.97573 33471 ft 465 kts 65°
2026-04-26 16:12 52.16975 2.07339 34294 ft 463 kts 65°
2026-04-26 16:13 52.18165 2.12212 34644 ft 462 kts 65°
2026-04-26 16:13 52.19331 2.17009 34983 ft 461 kts 65°
2026-04-26 16:13 52.20509 2.21866 35257 ft 461 kts 65°
2026-04-26 16:13 52.21689 2.26741 35326 ft 464 kts 65°
2026-04-26 16:14 52.24068 2.36585 35330 ft 467 kts 65°
2026-04-26 16:15 52.27617 2.51338 35339 ft 467 kts 65°
2026-04-26 16:15 52.29972 2.61225 35339 ft 467 kts 65°
2026-04-26 16:16 52.32863 2.76489 35341 ft 470 kts 71°
2026-04-26 16:16 52.34670 2.86756 35346 ft 470 kts 71°
2026-04-26 16:17 52.36450 2.96971 35346 ft 470 kts 71°
2026-04-26 16:17 52.38234 3.07265 35358 ft 470 kts 71°
2026-04-26 16:18 52.41464 3.22327 35360 ft 465 kts 61°
2026-04-26 16:19 52.45552 3.36758 35361 ft 466 kts 62°
2026-04-26 16:20 52.49578 3.51189 35381 ft 466 kts 62°
2026-04-26 16:20 52.53612 3.65712 35369 ft 466 kts 62°
2026-04-26 16:21 52.56302 3.75405 35365 ft 466 kts 62°
2026-04-26 16:21 52.58959 3.85043 35355 ft 466 kts 62°
2026-04-26 16:22 52.61624 3.94767 35353 ft 466 kts 62°
2026-04-26 16:22 52.64285 4.04489 35355 ft 466 kts 62°
2026-04-26 16:23 52.66943 4.14226 35356 ft 466 kts 62°
2026-04-26 16:23 52.69584 4.23962 35364 ft 466 kts 62°
2026-04-26 16:24 52.72194 4.33655 35355 ft 465 kts 62°
2026-04-26 16:24 52.74821 4.43418 35350 ft 465 kts 62°
2026-04-26 16:25 52.77436 4.53191 35351 ft 465 kts 62°
2026-04-26 16:25 52.80041 4.62984 35355 ft 466 kts 62°
2026-04-26 16:26 52.82204 4.71127 35369 ft 466 kts 62°
2026-04-26 16:26 52.85220 4.82528 35371 ft 466 kts 62°
2026-04-26 16:27 52.87807 4.92353 35370 ft 466 kts 62°
2026-04-26 16:27 52.90383 5.02187 35385 ft 466 kts 63°
2026-04-26 16:28 52.92956 5.12039 35383 ft 466 kts 62°
2026-04-26 16:28 52.95513 5.21900 35370 ft 465 kts 63°
2026-04-26 16:29 52.98041 5.31709 35358 ft 465 kts 63°
2026-04-26 16:29 53.00584 5.41582 35354 ft 465 kts 63°
2026-04-26 16:30 53.03122 5.51468 35353 ft 465 kts 63°
2026-04-26 16:30 53.05653 5.61363 35367 ft 465 kts 63°
2026-04-26 16:31 53.08167 5.71278 35376 ft 465 kts 63°
2026-04-26 16:31 53.10672 5.81195 35375 ft 465 kts 63°
2026-04-26 16:32 53.12748 5.89440 35386 ft 465 kts 63°
2026-04-26 16:32 53.15647 6.00989 35376 ft 465 kts 63°
2026-04-26 16:33 53.18070 6.10997 35366 ft 466 kts 65°
2026-04-26 16:33 53.20237 6.21200 35378 ft 467 kts 67°
2026-04-26 16:34 53.22314 6.31473 35369 ft 467 kts 67°
2026-04-26 16:34 53.24408 6.41654 35364 ft 467 kts 67°
2026-04-26 16:35 53.26551 6.51872 35367 ft 466 kts 66°
2026-04-26 16:35 53.28689 6.62106 35358 ft 466 kts 67°
2026-04-26 16:36 53.30813 6.72356 35353 ft 466 kts 67°
2026-04-26 16:36 53.32926 6.82611 35367 ft 466 kts 67°
2026-04-26 16:37 53.35024 6.92864 35370 ft 466 kts 67°
2026-04-26 16:37 53.37103 7.03064 35372 ft 466 kts 67°
2026-04-26 16:38 53.39188 7.13337 35373 ft 466 kts 67°
2026-04-26 16:38 53.41256 7.23601 35062 ft 463 kts 68°
2026-04-26 16:39 53.42282 7.28722 34446 ft 464 kts 68°
2026-04-26 16:39 53.43303 7.33846 33890 ft 462 kts 68°
2026-04-26 16:39 53.44315 7.38945 33360 ft 459 kts 68°
2026-04-26 16:39 53.45302 7.43934 32883 ft 455 kts 68°
2026-04-26 16:40 53.46296 7.48954 32387 ft 452 kts 68°
2026-04-26 16:40 53.47282 7.53945 31921 ft 449 kts 68°
2026-04-26 16:40 53.48261 7.58893 31445 ft 445 kts 68°
2026-04-26 16:40 53.49231 7.63808 30969 ft 442 kts 68°
2026-04-26 16:41 53.50193 7.68700 30523 ft 439 kts 69°
2026-04-26 16:41 53.51147 7.73553 30003 ft 436 kts 69°
2026-04-26 16:41 53.52092 7.78373 29489 ft 432 kts 69°
2026-04-26 16:41 53.53022 7.83131 28724 ft 425 kts 69°
2026-04-26 16:42 53.53929 7.87784 28420 ft 425 kts 69°
2026-04-26 16:42 53.54846 7.92496 28326 ft 424 kts 69°
2026-04-26 16:42 53.56674 8.01948 28344 ft 425 kts 69°
2026-04-26 16:43 53.58497 8.11413 28335 ft 425 kts 69°
2026-04-26 16:43 53.60310 8.20882 28159 ft 422 kts 69°
2026-04-26 16:44 53.61199 8.25547 27344 ft 416 kts 69°
2026-04-26 16:44 53.62077 8.30167 26543 ft 412 kts 69°
2026-04-26 16:44 53.62940 8.34731 25776 ft 407 kts 69°
2026-04-26 16:44 53.63792 8.39244 25057 ft 402 kts 69°
2026-04-26 16:45 53.64625 8.43653 24350 ft 398 kts 69°
2026-04-26 16:45 53.65458 8.48068 23604 ft 393 kts 69°
2026-04-26 16:45 53.66281 8.52431 22786 ft 388 kts 69°
2026-04-26 16:45 53.67093 8.56739 21999 ft 383 kts 69°
2026-04-26 16:46 53.67892 8.61001 21213 ft 378 kts 69°
2026-04-26 16:46 53.68676 8.65208 20463 ft 374 kts 69°
2026-04-26 16:46 53.69450 8.69371 19747 ft 369 kts 69°
2026-04-26 16:46 53.70213 8.73478 19046 ft 365 kts 69°
2026-04-26 16:47 53.70967 8.77544 18307 ft 361 kts 69°
2026-04-26 16:47 53.71699 8.81503 17538 ft 356 kts 69°
2026-04-26 16:47 53.72432 8.85464 16798 ft 351 kts 69°
2026-04-26 16:47 53.73153 8.89372 16093 ft 347 kts 69°
2026-04-26 16:48 53.73863 8.93239 15377 ft 343 kts 69°
2026-04-26 16:48 53.74540 8.97090 14698 ft 342 kts 71°
2026-04-26 16:48 53.75152 9.00961 14339 ft 340 kts 72°
2026-04-26 16:48 53.75729 9.04823 13971 ft 337 kts 72°
2026-04-26 16:49 53.76289 9.08654 13616 ft 334 kts 72°
2026-04-26 16:49 53.76844 9.12457 13269 ft 333 kts 72°
2026-04-26 16:49 53.77400 9.16236 12872 ft 330 kts 72°
2026-04-26 16:49 53.77958 9.19991 12498 ft 328 kts 72°
2026-04-26 16:50 53.78514 9.23713 12122 ft 326 kts 72°
2026-04-26 16:50 53.79071 9.27413 11765 ft 323 kts 72°
2026-04-26 16:50 53.79623 9.31085 11406 ft 321 kts 72°
2026-04-26 16:50 53.80167 9.34732 11053 ft 319 kts 72°
2026-04-26 16:51 53.80697 9.38307 10709 ft 317 kts 72°
2026-04-26 16:51 53.81232 9.41914 10371 ft 315 kts 72°
2026-04-26 16:51 53.81758 9.45470 10171 ft 307 kts 72°
2026-04-26 16:51 53.82265 9.48921 10030 ft 298 kts 72°
2026-04-26 16:52 53.82762 9.52298 9759 ft 294 kts 72°
2026-04-26 16:52 53.83089 9.54517 9532 ft 293 kts 72°
2026-04-26 16:52 53.83748 9.58977 9091 ft 291 kts 73°
2026-04-26 16:52 53.84236 9.62291 8771 ft 289 kts 73°
2026-04-26 16:53 53.84719 9.65592 8467 ft 287 kts 73°
2026-04-26 16:53 53.85190 9.68826 8322 ft 279 kts 73°
2026-04-26 16:53 53.85663 9.72050 7877 ft 284 kts 73°
2026-04-26 16:53 53.86140 9.75253 7527 ft 284 kts 73°
2026-04-26 16:54 53.86627 9.78487 7270 ft 281 kts 73°
2026-04-26 16:54 53.87098 9.81591 7140 ft 263 kts 73°
2026-04-26 16:54 53.87535 9.84502 7009 ft 246 kts 73°
2026-04-26 16:54 53.87945 9.87229 6870 ft 234 kts 73°
2026-04-26 16:55 53.88342 9.89863 6671 ft 229 kts 73°
2026-04-26 16:55 53.88639 9.92498 6394 ft 228 kts 88°
2026-04-26 16:55 53.88589 9.95199 6001 ft 232 kts 94°
2026-04-26 16:55 53.88469 9.97966 5637 ft 235 kts 94°
2026-04-26 16:56 53.88238 10.03301 5252 ft 225 kts 95°
2026-04-26 16:56 53.88133 10.05935 4978 ft 224 kts 94°
2026-04-26 16:56 53.88032 10.08558 4718 ft 222 kts 94°
2026-04-26 16:57 53.87933 10.11168 4453 ft 221 kts 94°
2026-04-26 16:57 53.87828 10.13755 4171 ft 220 kts 94°
2026-04-26 16:57 53.87620 10.18901 4000 ft 219 kts 94°
2026-04-26 16:58 53.87515 10.21487 4003 ft 220 kts 94°
2026-04-26 16:58 53.87480 10.22327 4000 ft 219 kts 94°
2026-04-26 16:58 53.87206 10.29243 3998 ft 221 kts 95°
2026-04-26 16:59 53.87054 10.31818 3999 ft 220 kts 107°
2026-04-26 16:59 53.84966 10.34922 4003 ft 208 kts 179°
2026-04-26 17:00 53.82237 10.33706 4005 ft 204 kts 204°
2026-04-26 17:00 53.79610 10.31908 3995 ft 203 kts 207°
2026-04-26 17:00 53.78517 10.30428 4002 ft 203 kts 231°
2026-04-26 17:01 53.77622 10.28585 4004 ft 203 kts 232°
2026-04-26 17:01 53.76733 10.26744 4002 ft 202 kts 232°
2026-04-26 17:01 53.75843 10.24915 3846 ft 202 kts 231°
2026-04-26 17:01 53.74947 10.23081 3600 ft 202 kts 231°
2026-04-26 17:02 53.74053 10.21253 3340 ft 202 kts 232°
2026-04-26 17:02 53.73173 10.19453 3065 ft 201 kts 231°
2026-04-26 17:02 53.72286 10.17642 2789 ft 197 kts 232°
2026-04-26 17:02 53.71436 10.15908 2548 ft 187 kts 233°
2026-04-26 17:03 53.70635 10.14277 2275 ft 174 kts 235°
2026-04-26 17:03 53.69884 10.12747 2041 ft 166 kts 234°
2026-04-26 17:03 53.69157 10.11265 1817 ft 163 kts 236°
2026-04-26 17:03 53.68462 10.09851 1595 ft 151 kts 235°
2026-04-26 17:04 53.67810 10.08523 1392 ft 145 kts 234°
2026-04-26 17:04 53.67178 10.07237 1205 ft 140 kts 235°
2026-04-26 17:04 53.66571 10.06002 1015 ft 138 kts 235°
2026-04-26 17:04 53.65957 10.04752 822 ft 140 kts 234°
2026-04-26 17:05 53.65327 10.03474 642 ft 142 kts 236°
2026-04-26 17:05 53.64700 10.02200 431 ft 141 kts 236°
2026-04-26 17:05 53.64070 10.00928 239 ft 139 kts 235°
2026-04-26 17:05 53.63463 9.99667 60 ft 134 kts 233°
2026-04-26 17:06 53.62962 9.98656 43 ft 91 kts 230°
2026-04-26 17:06 53.62641 9.98016 43 ft 53 kts 231°
2026-04-26 17:06 53.62509 9.97791 41 ft 15 kts 197°
2026-04-26 17:06 53.62431 9.97889 41 ft 16 kts 102°
2026-04-26 17:07 53.62440 9.98005 41 ft 5 kts 77°
2026-04-26 17:07 53.62451 9.98074 40 ft 7 kts 69°
2026-04-26 17:07 53.62487 9.98144 42 ft 9 kts 49°
2026-04-26 17:07 53.62533 9.98233 42 ft 11 kts 49°
2026-04-26 17:08 53.62587 9.98345 42 ft 13 kts 51°
2026-04-26 17:08 53.62638 9.98482 42 ft 14 kts 104°
2026-04-26 17:08 53.62558 9.98569 43 ft 15 kts 152°
2026-04-26 17:08 53.62520 9.98719 43 ft 16 kts 78°
2026-04-26 17:09 53.62543 9.98914 44 ft 18 kts 79°
2026-04-26 17:09 53.62550 9.98983 42 ft 19 kts 79°
2026-04-26 17:09 53.62596 9.99377 43 ft 23 kts 79°
2026-04-26 17:09 53.62638 9.99743 43 ft 32 kts 78°
2026-04-26 17:10 53.62789 9.99948 48 ft 25 kts 29°
2026-04-26 17:10 53.62881 10.00036 46 ft 11 kts 25°
2026-04-26 17:10 53.62958 10.00102 46 ft 14 kts 31°
2026-04-26 17:10 53.63006 10.00177 46 ft 4 kts 111°
2026-04-26 17:11 53.62985 10.00234 46 ft 7 kts 124°
2026-04-26 17:11 53.62967 10.00283 46 ft 0 kts 120°
2026-04-26 17:11 53.62966 10.00287 46 ft 0 kts 121°